Regional Weather Roundup
Issued by NWS Sterling, VA

Home | Current Version | Previous Version | Text Only | Print | Product List | Glossary Off
Versions: 1 2 3 4 5 6 7 8 9 10 11 12 13 14 15 16 17 18 19 20 21 22 23 24 25 26 27 28 29 30 31 32 33 34 35 36 37 38 39 40 41 42 43 44 45 46 47 48 49 50

000
ASUS41 KLWX 031310
RWRLWX

REGIONAL WEATHER ROUNDUP
NATIONAL WEATHER SERVICE BALTIMORE MD/WASHINGTON DC
900 AM EDT THU SEP 03 2015

Note: "FAIR" indicates few or no clouds below 12,000 feet
with no significant weather and/or obstructions to visibility.
 TC=TEMPERATURE CELSIUS

 * =Non NWS site. Station does not report precipitation (e.g. rain,
    snow, etc.), thunder, or fog.

DCZ001-MDZ009-015-VAZ040>042-051-053>054-031400-
WASHINGTON METRO

CITY           SKY/WX    TMP DP  RH WIND       PRES   REMARKS
WASHINGTON NAT SUNNY     81  67  62 N6        29.94R
DULLES         SUNNY     78  67  68 NW6       29.95R
ANDREWS AFB    SUNNY     80  67  64 W8        29.93R
FT BELVOIR     SUNNY     77  69  75 NW8       29.93S
QUANTICO       SUNNY     74  66  76 NW3       29.94S
COLLEGE PARK*  SUNNY     79  68  69 CALM      29.92S
LEESBURG*      SUNNY     81  70  69 NW6G16    29.96R
MANASSAS*      SUNNY     73  70  88 CALM      29.95R
GAITHERSBURG*  SUNNY     75  68  78 W6        29.98S

$$

MDZ006>007-011-014-031400-
BALTIMORE METRO

CITY           SKY/WX    TMP DP  RH WIND       PRES   REMARKS
BWI AIRPORT    MOSUNNY   80  68  66 CALM      29.92R
MD SCIENCE CTR   N/A     81  67  62 MISG      29.92R
MARTIN STATE   SUNNY     79  72  78 CALM      29.93S
ANNAPOLIS      SUNNY     78  70  76 NW3       29.91S
FORT MEADE*    SUNNY     73  70  88 CALM      29.95R

$$

MDZ012-015-019>023-031400-
MARYLAND EASTERN SHORE

CITY           SKY/WX    TMP DP  RH WIND       PRES   REMARKS
OCEAN CITY     SUNNY     78  71  79 NW8       29.90R
SALISBURY      SUNNY     76  72  87 NW8       29.91S
BAY BRIDGE AP*   N/A     79  68  69 N5        29.91S
CAMBRIDGE*     SUNNY     79  70  73 N3        29.91S
EASTON*        SUNNY     77  75  94 CALM      29.95S FOG

$$

MDZ017>025-031400-
SOUTHERN MARYLAND

CITY           SKY/WX    TMP DP  RH WIND       PRES   REMARKS
PATUXENT RIVER SUNNY     77  68  73 NW8       29.91S
ST INIGOES     SUNNY     78  69  73 NW5       29.91S
LEONARDTOWN*   NOT AVBL

$$

MDZ003>005-031400-
NORTH CENTRAL MARYLAND

CITY           SKY/WX    TMP DP  RH WIND       PRES   REMARKS
FREDERICK*     SUNNY     75  72  88 CALM      29.98R
HAGERSTOWN APT SUNNY     73  66  78 CALM      29.98R
WESTMINSTER*   SUNNY     77  70  78 NW3       29.96R

$$

MDZ501>502-031400-
WESTERN MARYLAND

CITY           SKY/WX    TMP DP  RH WIND       PRES   REMARKS
OAKLAND*       PTSUNNY   64  63  94 W3        30.11S FOG
CUMBERLAND*    CLOUDY    68  68 100 CALM      30.05R VSB 1/4

$$

VAZ025>031-031400-
SHENANDOAH VALLEY

CITY           SKY/WX    TMP DP  RH WIND       PRES   REMARKS
WINCHESTER*    SUNNY     73  66  78 CALM      29.99S
FRONT ROYAL*   FAIR      72  64  78 S8        29.98S
LURAY*         FAIR      66  66 100 S3        30.01S
NEW MARKET*    FAIR      68  66  92 CALM      30.00S
STAUNTON*      SUNNY     69  66  90 CALM      30.05S
WAYNESBORO*    FAIR      71  65  83 CALM      30.04R

$$

WVZ021-048>050-054>055-031400-
EASTERN WEST VIRGINIA PANHANDLE

CITY           SKY/WX    TMP DP  RH WIND       PRES   REMARKS
MARTINSBURG    SUNNY     71  66  84 CALM      29.98S
PETERSBURG*    PTSUNNY   65  65  99 CALM      30.03F FOG

$$

VAZ036>039-050-031400-
CENTRAL FOOTHILLS

CITY           SKY/WX    TMP DP  RH WIND       PRES   REMARKS
CHARLOTTESVILL SUNNY     74  66  76 VRB3      29.97S
CULPEPER*      SUNNY     73  69  85 CALM      29.96S
ORANGE*        SUNNY     77  68  73 CALM      29.97S
GORDONSVILLE*  FAIR      74  68  81 CALM      29.95F
WARRENTON*     FAIR      75  69  81 CALM      29.95S

$$

VAZ055>057-031400-
NORTH AND CENTRAL PIEDMONT

CITY           SKY/WX    TMP DP  RH WIND       PRES   REMARKS
FREDERICKSBRG* SUNNY     76  68  75 CALM      29.93F
STAFFORD*      SUNNY     74  66  76 CALM      29.98S

$$

NCZ024-NYZ072-PAZ021-071-VAZ022-071-031400-
OTHER REGIONAL OBSERVATIONS

CITY           SKY/WX    TMP DP  RH WIND       PRES   REMARKS
NEW YORK CITY  SUNNY     78  65  63 CALM      29.91F HAZE
PHILADELPHIA   PTSUNNY   81  65  58 NW6       29.91S
PITTSBURGH     CLOUDY    73  66  78 VRB5      30.02R
ROANOKE        SUNNY     75  65  70 CALM      30.04F
RICHMOND       MOSUNNY   76  68  76 NW3       29.94S
RALEIGH        PTSUNNY   73  69  87 CALM      29.97S

$$

ANZ530>537-031400-
MARINE OBSERVATIONS

STATION/POSITION TIME  TEMP    WIND        PRES
                       AIR SEA DIR/SP/G
                 (UTC) (F)     (DEG/KT/KT) (MB)
THOMAS PT LIGHT  NOT AVBL
BALT KEY BRIDGE  1200   78      20/  3/  4 1012.9R
COVE POINT       1200   75     300/  4/  5 1013.8R
LEWISETTA        1200   72 80  270/  4/  5 1012.8R
SOLOMONS ISLAND  1200      81                N/A
PINEY POINT      1217          310/  8/  8   N/A

$$




USA.gov is the U.S. government's official web portal to all federal, state and local government web resources and services.